Flag for U.S.A. Weather past 2 weeks in Olympia, Washington, U.S.A.

Now
56 °F

Mostly cloudy.


Feels Like: 54 °F
Forecast: 46 / 58 °F
Wind: 8 mph from West

Location: Olympia Airport

Current Time: Apr 28, 2015 at 7:38:35 AM

Latest Report: Apr 28, 2015 at 6:54 AM


Visibility: 10 mi

Pressure: 30.05 "Hg

Humidity: 77%

Dew point: 49 °F

Location of OlympiaLocation

Historic Weather in Olympia — Graph

°F

Olympia temperature yesterday

Maximum temperature yesterday: 75 °F (at 4:54 PM)
Minimum temperature yesterday: 50 °F (at 12:54 AM)
Average temperature yesterday: 60 °F

Past Weeks' High & Low Weather Summary

 TemperatureHumidityPressure
High77 °F (Apr 20, 4:54 PM)100% (Apr 25, 7:02 AM)30.56 "Hg (Apr 25, 7:02 AM)
Low27 °F (Apr 15, 5:54 AM)25% (Apr 18, 3:54 PM)29.79 "Hg (Apr 24, 3:54 AM)
Average50 °F71%30.12 "Hg
* Reported Apr 13 5:54 AM — Apr 28 5:54 AM, Olympia, Weather by CustomWeather, © 2015

Note: Actual official high and low records may vary slightly from our data, if they occured in-between our weather recording intervals... More about our weather records

Advertising

Olympia weather history for previous 24 hours

 ConditionsComfort  
Time TempWeatherWind HumidityBarometerVisibility
5:54 AM
Tue, Apr 28
56 °FOvercast.10 mph77%30.04 "Hg10 mi
4:54 AM57 °FPartly cloudy.10 mph74%30.02 "Hg10 mi
3:54 AM57 °FOvercast.10 mph74%30.01 "Hg10 mi
2:54 AM58 °FClear.8 mph75%29.99 "Hg10 mi
1:54 AM60 °FClear.7 mph75%29.96 "Hg10 mi
12:54 AM56 °FClear.No wind87%29.94 "Hg10 mi
11:54 PM
Mon, Apr 27
55 °FClear.No wind90%29.92 "Hg10 mi
10:54 PM56 °FClear.No wind87%29.91 "Hg10 mi
9:54 PM59 °FClear.No wind81%29.91 "Hg10 mi
8:54 PM63 °FSunny.No wind70%29.92 "Hg10 mi
7:54 PM70 °FSunny.3 mph55%29.93 "Hg10 mi
6:54 PM73 °FPassing clouds.7 mph50%29.95 "Hg10 mi
5:54 PM73 °FSunny.6 mph51%29.97 "Hg10 mi
4:54 PM75 °FSunny.7 mph48%30.00 "Hg10 mi
3:54 PM74 °FSunny.10 mph50%30.04 "Hg10 mi
1:54 PM71 °FSunny.9 mph55%30.12 "Hg10 mi
12:54 PM69 °FPassing clouds.N/A57%30.15 "Hg10 mi
11:54 AM67 °FPassing clouds.No wind59%30.18 "Hg10 mi
10:54 AM65 °FPassing clouds.5 mph66%30.21 "Hg10 mi
9:54 AM60 °FPartly sunny.6 mph75%30.24 "Hg10 mi
9:02 AM57 °FPartly sunny.6 mph83%30.25 "Hg10 mi
8:54 AM57 °FOvercast.6 mph83%30.25 "Hg10 mi
Weather by CustomWeather, © 2015

See weather overviewHow to use our weather pages